Probability
0 0 0 0 0 0 0 0 0 0 0 0 0 0 0 0 0 0 0 0 0 0 0 0 0 0 0 0 0 0 0 0 0 0 0 0 0 0
0 0 0 0 0 0 0 0 0 0 0 0 0 0 0 0 0 0 0 0 0 0 0 0 0 0 0 0 0 0 0 0 0 0 0 0 0 0
0 0 0 0 0 0 0 0 0 0 0 0 0 0 0 0 0 0 0 0 0 0 0 0 0 0 0 0 0 0 0 0 0 0 0 0 0 0
0 0 0 0 0 0 0 0 0 0 0 0 0 0 0 0 0 0 0 0 0 0 0 0 0 0 0 0 0 0 0 0 0 0 0 0 0 0
0 0 0 0 0 0 0 0 0 0 0 0 0 0 0 0 0 0 0 0 0 0 0 0 0 0 0 0 0 0 0 0 0 0 0 0 0 0
0 0 0 0 0 0 0 0 0 0 0 0 0 0 0 0 0 0 0 0 0 0 0 0 0 0 0 0 0 0 0 0 0 0 0 0 0 0
0 0 0 0 0 0 0 0 0 0 0 0 0 0 0 0 0 0 0 0 0 0 0 0 0 0 0 0 0 0 0 0 0 0 0 0 0 0
0 0 0 0 0 0 0 0 0 0 0 0 0 0 0 0 0 0 0 0 0 0 0 0 0 0 0 0 0 0 0 0 0 0 0 0 0 0
0 0 0 0 0 0 0 0 0 0 0 0 0 0 0 0 0 0 0 0 0 0 0 0 0 0 0 0 0 0 0 0 0 0 0 0 0 0
0 0 0 0 0 0 0 0 0 0 0 0 0 0 0 0 0 0 0 0 0 0 0 0 0 0 0 0 0 0 0 0 0 0 0 0 0 0
0 0 0 0 0 0 0 0 0 0 0 0 0 0 0 0 0 0 0 0 0 0 0 0 0 0 0 0 0 0 0 0 0 0 0 0 0 0
0 0 0 0 0 0 0 0 0 0 0 0 0 0 0 0 0 0 0 0 0 0 0 0 0 0 0 0 0 0 0 0 0 0 0 0 0 0
0 0 0 0 0 0 0 0 0 0 0 0 0 0 0 0 0 0 0 0 0 0 0 0 0 0 0 0 0 0 0 0 0 0 0 0 0 0
0 0 0 0 0 0 0 0 0 0 0 0 0 0 0 0 0 0 0 0 0 0 0 0 0 0 0 0 0 0 0 0 0 0 0 0 0 0
0 0 0 0 0 0 0 0 0 0 0 0 0 0 0 0 0 0 0 0 0 0 0 0 0 0 0 0 0 0 0 0 0 0 0 0 0 0
0 0 0 0 0 0 0 0 0 0 0 0 0 0 0 0 0 0 0 0 0 0 0 0 0 0 0 0 0 0 0 0 0 0 0 0 0 0
0 0 0 0 0 0 0 0 0 0 0 0 0 0 0 0 0 0 0 0 0 0 0 0 0 0 0 0 0 0 0 0 0 0 0 0 0 0
0 0 0 0 0 0 0 0 0 0 0 0 0 0 0 0 0 0 0 0 0 0 0 0 0 0 0 0 0 0 0 0 0 0 0 0 0 0
0 0 0 0 0 0 0 0 0 0 0 0 0 0 0 0 0 0 0 0 0 0 0 0 0 0 0 0 0 0 0 0 0 0 0 0 0 0
0 0 0 0 0 0 0 0 0 0 0 0 0 0 0 0 0 0 0 0 0 0 0 0 0 0 0 0 0 0 0 0 0 0 0 0 0 0
0 0 0 0 0 0 0 0 0 0 0 0 0 0 0 0 0 0 0 0 0 0 0 0 0 0 0 0 0 0 0 0 0 0 0 0 0 0
0 0 0 0 0 0 0 0 0 0 0 0 0 0 0 0 0 0 0 0 0 0 0 0 0 0 0 0 0 0 0 0 0 0 0 0 0 0
0 0 0 0 0 0 0 0 0 0 0 0 0 0 0 0 0 0 0 0 0 0 0 0 0 0 0 0 0 0 0 0 0 0 0 0 0 0
Wind_Speed
13 13 11 8 8 7 6 7 7 6 7 6 6 6 5 5 12 9 7 19 27 28 29 30 30 31 32 32 33 33 33 34 34 34 34 35 35 36
10 12 12 9 7 8 7 7 8 8 6 5 6 4 5 8 15 11 9 25 28 29 30 31 31 32 32 33 33 34 35 35 35 35 36 36 37 37
12 13 14 11 9 8 7 7 8 8 11 8 6 7 8 10 10 9 10 10 12 28 31 32 32 32 33 34 34 35 35 36 36 36 37 37 37 37
15 14 14 12 12 10 9 10 10 10 10 11 8 7 9 9 9 11 13 13 10 23 30 32 33 33 34 34 35 35 36 36 36 36 37 37 38 38
15 15 14 14 15 12 11 11 10 10 9 9 10 8 8 8 9 11 13 11 13 18 26 28 30 32 33 34 35 35 35 36 36 36 37 37 37 38
14 15 15 16 15 14 13 13 11 10 9 9 9 9 9 8 8 10 11 9 11 13 17 21 27 32 33 35 35 35 35 35 36 36 36 36 36 36
13 14 15 19 22 18 13 11 11 10 9 9 9 9 10 8 9 8 11 10 10 10 11 12 13 12 14 23 30 33 35 35 36 35 35 35 35 35
13 12 14 21 25 31 30 25 20 13 12 11 10 11 12 10 9 9 10 11 14 6 10 12 9 12 10 9 23 33 35 35 36 36 35 34 34 34
12 11 12 15 22 14 21 28 26 28 24 15 14 14 12 10 9 11 12 14 16 9 9 15 9 12 11 15 29 33 34 34 35 35 34 34 34 34
14 14 14 13 15 15 14 14 13 14 16 12 10 11 11 10 10 13 16 16 15 9 8 14 11 11 12 10 23 31 33 34 34 34 34 33 33 33
14 14 15 14 22 27 17 15 15 14 19 25 24 22 25 27 21 12 11 12 15 10 5 9 13 13 13 11 15 28 31 31 30 31 31 32 32 32
11 14 23 21 24 27 17 14 15 13 10 10 14 17 15 16 23 13 8 10 14 13 5 6 10 11 14 9 9 9 12 21 28 30 30 30 29 19
9 10 12 25 27 27 22 13 16 13 8 9 9 8 8 7 8 8 7 8 12 14 7 7 12 12 14 15 11 9 10 11 12 16 22 27 28 23
9 8 11 22 24 24 18 17 21 18 6 6 7 7 6 6 6 7 8 9 11 14 12 11 13 13 14 16 14 9 8 9 10 12 11 19 22 26
9 15 16 20 20 15 19 19 15 7 4 5 7 7 5 6 6 6 7 9 10 11 12 13 14 13 13 15 16 13 12 11 10 11 11 11 11 11
9 15 21 20 15 13 11 9 5 4 5 6 6 5 5 5 6 6 7 7 9 10 10 12 13 15 14 15 14 14 12 10 8 9 10 11 10 10
6 6 7 6 7 6 5 4 4 4 6 5 5 5 5 6 6 6 6 7 10 12 10 7 9 11 14 14 14 14 12 12 11 10 11 11 10 10
10 6 7 7 7 7 6 6 5 6 5 5 5 5 5 6 7 7 7 8 10 10 10 9 9 10 9 10 15 15 12 11 10 10 10 10 10 9
9 5 6 7 6 6 5 5 5 5 4 4 4 4 5 6 8 9 8 8 9 10 10 9 9 10 12 12 7 10 10 9 9 9 9 9 10 8
5 5 6 6 6 5 5 5 4 4 4 4 4 5 5 7 8 9 8 9 10 11 10 8 7 9 10 12 11 9 12 11 9 9 8 8 8 11
5 5 5 5 5 5 5 4 4 4 4 4 4 5 6 7 8 8 9 14 13 10 11 10 9 16 11 8 10 9 7 12 14 10 8 7 6 5
5 5 5 5 5 5 5 4 4 4 4 4 5 5 5 6 8 9 9 9 9 10 11 10 9 9 8 9 11 11 10 9 11 16 18 14 6 3
6 6 5 5 5 5 4 5 5 4 4 4 4 5 6 7 7 7 8 9 9 10 11 10 9 7 8 9 9 9 11 10 7 6 7 13 18 19
Wind_Direction
217 215 216 211 206 203 197 190 195 222 232 224 235 235 231 239 261 264 250 265 273 276 277 278 279 280 281 282 283 283 283 282 281 280 278 276 276 275
214 215 216 211 208 205 204 203 205 216 234 222 229 244 264 268 270 268 259 272 276 278 280 280 280 280 280 280 281 281 281 280 279 278 277 275 273 272
215 215 216 208 207 209 207 208 214 217 240 244 239 251 251 255 264 264 263 262 265 272 275 276 277 278 279 279 279 280 280 279 278 277 276 275 273 272
215 213 214 208 209 209 211 215 219 220 232 247 249 249 250 253 256 259 266 265 259 268 273 275 277 278 279 279 279 279 279 278 278 277 275 274 272 271
213 213 212 209 212 212 213 217 222 226 229 241 251 250 256 256 259 264 262 262 264 270 274 276 278 280 280 279 280 280 279 278 277 276 274 272 271 270
213 213 211 212 213 212 215 219 221 226 229 238 249 253 257 253 252 262 267 259 264 269 273 275 277 279 279 281 281 281 280 279 277 276 274 272 269 268
214 213 213 214 216 216 217 217 218 222 227 236 246 254 256 254 252 256 266 271 264 261 268 268 271 269 271 275 278 279 278 276 275 274 272 271 269 267
218 214 216 224 227 227 227 225 218 218 226 232 241 247 253 252 254 258 269 277 278 247 258 270 267 271 269 262 273 275 275 274 272 271 269 267 267 267
219 215 219 223 226 229 238 240 236 232 229 225 237 245 253 255 259 267 267 269 273 273 276 279 270 272 272 276 280 280 280 278 275 272 269 267 266 265
216 216 218 219 221 221 225 233 240 246 248 248 247 254 260 262 258 263 269 273 272 265 255 277 281 279 280 274 281 282 281 279 277 274 270 267 265 263
215 214 216 218 224 226 222 224 232 239 249 249 250 254 257 263 265 269 273 281 285 279 239 267 283 286 282 276 275 280 281 280 279 278 275 269 264 261
215 215 220 219 224 229 224 218 227 232 228 242 254 264 268 272 277 273 268 276 282 285 257 259 280 288 287 270 259 269 277 282 283 282 280 274 268 261
221 214 215 225 227 228 226 219 229 232 225 236 247 251 252 250 252 248 242 250 270 277 277 274 281 280 277 283 278 269 268 271 275 276 279 275 268 262
223 215 213 220 227 231 232 232 237 244 232 232 245 252 254 255 253 250 248 247 252 266 274 271 276 277 278 279 282 275 262 265 268 271 270 272 269 261
217 219 217 219 223 229 235 236 240 236 218 236 249 255 251 254 259 264 264 261 262 262 267 266 268 271 268 272 277 278 280 275 264 264 264 263 262 257
235 224 221 219 217 216 226 238 228 215 219 236 247 253 258 264 267 267 275 278 281 280 264 260 261 266 270 269 270 273 270 269 269 272 274 273 265 253
231 208 206 201 201 194 197 206 209 226 244 237 243 257 265 270 275 273 274 281 283 289 290 276 261 261 264 269 270 267 268 266 264 268 269 270 265 251
235 213 201 195 194 195 200 206 210 218 225 232 241 252 266 275 281 281 278 280 284 286 289 292 292 288 276 259 248 262 264 265 266 264 262 265 266 254
231 204 192 188 190 191 196 201 209 213 215 225 239 251 264 273 280 284 285 285 285 286 287 288 290 291 292 293 272 252 267 273 270 266 259 258 264 263
214 193 185 181 182 187 194 201 206 210 214 226 240 251 262 273 280 283 285 287 290 292 293 288 284 283 281 286 287 281 276 271 268 267 267 263 261 265
194 182 176 175 178 183 191 196 200 209 219 229 245 255 262 271 278 281 285 293 298 295 295 294 286 291 286 277 276 276 271 269 262 258 264 268 262 256
180 177 173 172 175 181 188 192 200 213 224 235 247 256 263 270 278 283 287 291 292 291 292 293 291 291 281 274 275 282 287 287 276 262 251 254 271 275
175 171 170 171 174 180 185 194 204 218 227 237 250 260 267 276 279 282 287 290 293 295 298 299 298 292 286 278 276 278 281 288 289 276 256 246 251 263